Location: LDNL
(36.4545°S, 141.6685°E)
Time: 11:33:22
(UTC+10:00)

Vanguard 3 - Pass Details

Date: 30 January 2022
Orbit: 508 x 3258 km, 33.3° (Epoch: 25 May)

Event Time Altitude Azimuth Distance (km) Brightness Sun altitude
Rises 04:34:51 0° 262° (W) 4,978 - -22.8°
Exits shadow 04:36:56 - 264° (W) 4,454 10.6 -22.5°
Reaches altitude 10° 04:37:37 10° 265° (W) 4,289 10.5 -22.4°
Maximum altitude 04:50:15 67° 343° (NNW) 2,846 9.6 -20.6°
Drops below altitude 10° 05:09:25 10° 60° (ENE) 6,187 11.9 -17.7°
Sets 05:14:22 0° 62° (ENE) 7,212 12.3 -16.9°
